Location: Waning Moon II Observatory
(30.3730°N, 89.7620°W)
Time: 14:31:27
(UTC-06:00)

Meteor 1-21 - Visible Passes

Search period start: 02 March 2015 00:00
Search period end: 12 March 2015 01:00
Orbit: 843 x 890 km, 81.2° (Epoch: 02 March)

Date Brightness Start Highest point End Pass type
(mag) Time Alt. Az. Time Alt. Az. Time Alt. Az.
02 Mar 5.9 18:29:20 10° ENE 18:30:23 11° ENE 18:31:54 10° E visible
02 Mar 4.4 20:08:45 10° NNW 20:14:20 70° W 20:14:41 68° WSW visible
03 Mar 5.9 18:21:56 10° NE 18:23:09 11° ENE 18:24:49 10° E visible
03 Mar 4.4 20:01:30 10° NNW 20:07:05 69° W 20:09:27 35° SSW visible
04 Mar 4.4 19:54:16 10° NNW 19:59:50 68° W 20:05:19 11° S visible
05 Mar 4.5 19:47:01 10° NNW 19:52:35 68° W 19:58:12 10° S visible
06 Mar 4.5 19:39:46 10° NNW 19:45:21 67° W 19:50:57 10° S visible
07 Mar 4.6 19:32:32 10° NNW 19:38:06 66° W 19:43:43 10° S visible
08 Mar 4.6 20:25:17 10° NNW 20:30:51 65° W 20:36:28 10° S visible
09 Mar 4.7 20:18:02 10° NNW 20:23:37 64° W 20:29:13 10° S visible
10 Mar 4.7 20:10:48 10° NNW 20:16:22 63° W 20:21:59 10° S visible
11 Mar 4.8 20:03:33 10° NNW 20:09:07 63° W 20:14:44 10° S visible
